Location: Unspecified
(33.6682°S, 0.0000°E)
Time: 11:46:58
(UTC+00:00)

Tiros 1 despin weight - Visible Passes

Search period start: 05 August 2020 00:00
Search period end: 15 August 2020 00:00
Orbit: 594 x 642 km, 48.2° (Epoch: 04 August)

Date Brightness Start Highest point End Pass type
(mag) Time Alt. Az. Time Alt. Az. Time Alt. Az.
05 Aug ? 19:05:03 10° NNW 19:08:53 38° NNE 19:08:53 38° NNE visible
06 Aug ? 19:21:05 10° NW 19:25:16 73° NNW 19:25:16 73° NNW visible
07 Aug ? 17:57:07 10° N 18:00:53 25° NE 18:04:31 11° ESE visible
07 Aug ? 19:37:43 10° WNW 19:41:36 47° WSW 19:41:36 47° WSW visible
08 Aug ? 18:12:42 10° NW 18:17:09 54° NE 18:20:45 16° ESE visible
08 Aug ? 19:54:49 10° W 19:57:50 27° SW 19:57:50 27° SW visible
09 Aug ? 18:29:01 10° WNW 18:33:35 75° SW 18:36:54 19° SE visible
09 Aug ? 20:12:17 10° WSW 20:13:59 17° SW 20:13:59 17° SW visible
10 Aug ? 18:45:52 10° W 18:50:11 40° SSW 18:53:00 20° SSE visible
10 Aug ? 20:29:56 10° SW 20:30:04 10° SW 20:30:04 10° SW visible
11 Aug ? 19:03:08 10° W 19:06:58 25° SSW 19:09:00 19° SSE visible
12 Aug ? 19:20:42 10° WSW 19:23:52 18° SSW 19:24:57 17° S visible
13 Aug ? 17:54:04 10° W 17:58:12 32° SSW 18:02:24 10° SE visible
13 Aug ? 19:38:21 10° SW 19:40:51 14° S 19:40:51 14° S visible
14 Aug ? 18:11:29 10° WSW 18:15:01 21° SSW 18:18:37 10° SSE visible
14 Aug ? 19:55:43 10° SSW 19:56:43 12° SSW 19:56:43 12° SSW visible
